Wetterdaten: Donnerstag, 16.07.2015
Datum Zeit Auen-Temp. Temp gefhlt Luftfeuchte Luftdruck Regen Wind Richtung Richtung Taupunkt Windben
16.07.2015 00:00 16,0 C 15,8 C 78 % 1014,5 hPa 0,0 mm 0,0 km/h (0 Bft) O-NO 67 12,2 C 0,0 km/h (0 Bft)
16.07.2015 00:05 15,8 C 15,6 C 79 % 1014,5 hPa 0,0 mm 0,0 km/h (0 Bft) O-NO 67 12,2 C 0,0 km/h (0 Bft)
16.07.2015 00:10 15,7 C 15,5 C 80 % 1014,5 hPa 0,0 mm 0,0 km/h (0 Bft) S-SO 157 12,3 C 0,0 km/h (0 Bft)
16.07.2015 00:15 15,6 C 15,4 C 79 % 1014,5 hPa 0,0 mm 0,0 km/h (0 Bft) S-SO 157 12,0 C 0,0 km/h (0 Bft)
16.07.2015 00:20 15,4 C 15,2 C 80 % 1014,5 hPa 0,0 mm 0,0 km/h (0 Bft) O-NO 67 12,0 C 0,0 km/h (0 Bft)
16.07.2015 00:25 15,5 C 15,2 C 81 % 1014,5 hPa 0,0 mm 0,0 km/h (0 Bft) O-NO 67 12,3 C 0,0 km/h (0 Bft)
16.07.2015 00:30 15,4 C 15,1 C 82 % 1014,3 hPa 0,0 mm 0,0 km/h (0 Bft) O-NO 67 12,3 C 0,0 km/h (0 Bft)
16.07.2015 00:35 15,3 C 15,0 C 81 % 1014,3 hPa 0,0 mm 0,0 km/h (0 Bft) O-NO 67 12,1 C 0,0 km/h (0 Bft)
16.07.2015 00:40 15,2 C 14,9 C 81 % 1014,3 hPa 0,0 mm 0,0 km/h (0 Bft) O-NO 67 12,0 C 0,0 km/h (0 Bft)
16.07.2015 00:45 15,1 C 14,9 C 81 % 1014,3 hPa 0,0 mm 0,0 km/h (0 Bft) O-NO 67 11,9 C 0,0 km/h (0 Bft)
16.07.2015 00:50 14,9 C 14,7 C 82 % 1014,3 hPa 0,0 mm 0,0 km/h (0 Bft) NW 315 11,9 C 0,0 km/h (0 Bft)
16.07.2015 00:55 14,8 C 14,6 C 82 % 1014,3 hPa 0,0 mm 0,0 km/h (0 Bft) NW 315 11,8 C 0,0 km/h (0 Bft)
16.07.2015 01:00 14,7 C 14,5 C 82 % 1014,3 hPa 0,0 mm 0,0 km/h (0 Bft) NW 315 11,7 C 0,0 km/h (0 Bft)
16.07.2015 01:05 14,6 C 14,4 C 82 % 1014,3 hPa 0,0 mm 0,0 km/h (0 Bft) NW 315 11,6 C 0,0 km/h (0 Bft)
16.07.2015 01:10 14,5 C 14,3 C 82 % 1014,3 hPa 0,0 mm 0,0 km/h (0 Bft) N-NO 22 11,5 C 0,0 km/h (0 Bft)
16.07.2015 01:15 14,6 C 14,3 C 83 % 1014,3 hPa 0,0 mm 0,0 km/h (0 Bft) N-NO 22 11,7 C 0,0 km/h (0 Bft)
16.07.2015 01:20 14,5 C 14,2 C 83 % 1014,3 hPa 0,0 mm 0,0 km/h (0 Bft) N-NO 22 11,6 C 0,0 km/h (0 Bft)
16.07.2015 01:25 14,4 C 14,2 C 83 % 1014,3 hPa 0,0 mm 0,0 km/h (0 Bft) N-NO 22 11,5 C 0,0 km/h (0 Bft)
16.07.2015 01:30 14,3 C 14,1 C 83 % 1014,4 hPa 0,0 mm 0,0 km/h (0 Bft) N-NO 22 11,5 C 0,0 km/h (0 Bft)
16.07.2015 01:35 14,3 C 14,1 C 84 % 1014,4 hPa 0,0 mm 0,0 km/h (0 Bft) N-NO 22 11,6 C 0,0 km/h (0 Bft)
16.07.2015 01:40 14,2 C 14,0 C 84 % 1014,4 hPa 0,0 mm 0,0 km/h (0 Bft) N-NO 22 11,5 C 0,0 km/h (0 Bft)
16.07.2015 01:45 14,4 C 14,1 C 84 % 1014,4 hPa 0,0 mm 0,0 km/h (0 Bft) SW 225 11,7 C 0,0 km/h (0 Bft)
16.07.2015 01:50 14,7 C 14,4 C 85 % 1014,2 hPa 0,0 mm 0,0 km/h (0 Bft) N-NO 22 12,2 C 0,0 km/h (0 Bft)
16.07.2015 01:55 14,5 C 14,3 C 84 % 1014,2 hPa 0,0 mm 0,0 km/h (0 Bft) N-NW 337 11,8 C 0,0 km/h (0 Bft)
16.07.2015 02:00 14,5 C 14,3 C 85 % 1014,2 hPa 0,0 mm 0,0 km/h (0 Bft) N-NW 337 12,0 C 0,0 km/h (0 Bft)
16.07.2015 02:05 14,6 C 14,3 C 85 % 1014,2 hPa 0,0 mm 0,0 km/h (0 Bft) N-NW 337 12,1 C 0,0 km/h (0 Bft)
16.07.2015 02:09 14,5 C 14,3 C 85 % 1014,2 hPa 0,0 mm 0,0 km/h (0 Bft) W-SW 247 12,0 C 0,0 km/h (0 Bft)
16.07.2015 02:10 14,5 C 14,3 C 85 % 1014,2 hPa 0,0 mm 0,0 km/h (0 Bft) W-SW 247 12,0 C 0,0 km/h (0 Bft)
16.07.2015 02:15 14,5 C 14,3 C 85 % 1014,2 hPa 0,0 mm 0,0 km/h (0 Bft) NW 315 12,0 C 0,0 km/h (0 Bft)
16.07.2015 02:20 14,3 C 14,1 C 85 % 1014,2 hPa 0,0 mm 0,0 km/h (0 Bft) NW 315 11,8 C 0,0 km/h (0 Bft)
16.07.2015 02:25 14,1 C 14,0 C 85 % 1014,2 hPa 0,0 mm 0,0 km/h (0 Bft) NW 315 11,6 C 0,0 km/h (0 Bft)
16.07.2015 02:30 14,2 C 14,0 C 85 % 1014,2 hPa 0,0 mm 0,0 km/h (0 Bft) NW 315 11,7 C 0,0 km/h (0 Bft)
16.07.2015 02:35 14,2 C 14,0 C 85 % 1014,2 hPa 0,0 mm 0,0 km/h (0 Bft) NW 315 11,7 C 0,0 km/h (0 Bft)
16.07.2015 02:40 14,5 C 14,2 C 86 % 1014,2 hPa 0,0 mm 0,0 km/h (0 Bft) O-NO 67 12,2 C 0,0 km/h (0 Bft)
16.07.2015 02:45 14,6 C 14,3 C 86 % 1014,2 hPa 0,0 mm 0,0 km/h (0 Bft) SO 135 12,3 C 0,0 km/h (0 Bft)
16.07.2015 02:50 14,6 C 14,4 C 86 % 1014,0 hPa 0,0 mm 0,0 km/h (0 Bft) O-NO 67 12,3 C 0,0 km/h (0 Bft)
16.07.2015 02:55 14,5 C 14,3 C 86 % 1014,0 hPa 0,0 mm 0,0 km/h (0 Bft) O-NO 67 12,2 C 0,0 km/h (0 Bft)
16.07.2015 03:00 14,5 C 14,3 C 86 % 1014,0 hPa 0,0 mm 0,0 km/h (0 Bft) O-NO 67 12,2 C 0,0 km/h (0 Bft)
16.07.2015 03:05 14,4 C 14,2 C 86 % 1014,0 hPa 0,0 mm 0,0 km/h (0 Bft) O-NO 67 12,1 C 0,0 km/h (0 Bft)
16.07.2015 03:10 14,4 C 14,2 C 85 % 1013,9 hPa 0,0 mm 0,0 km/h (0 Bft) O-NO 67 11,9 C 0,0 km/h (0 Bft)
16.07.2015 03:15 14,5 C 14,2 C 86 % 1013,9 hPa 0,0 mm 0,0 km/h (0 Bft) O-NO 67 12,2 C 0,0 km/h (0 Bft)
16.07.2015 03:20 14,6 C 14,3 C 86 % 1013,9 hPa 0,0 mm 0,0 km/h (0 Bft) O-NO 67 12,3 C 0,0 km/h (0 Bft)
16.07.2015 03:25 14,6 C 14,4 C 83 % 1013,9 hPa 0,0 mm 0,0 km/h (0 Bft) O-NO 67 11,7 C 0,0 km/h (0 Bft)
16.07.2015 03:30 14,6 C 14,5 C 83 % 1013,9 hPa 0,0 mm 0,0 km/h (0 Bft) O-NO 67 11,7 C 0,0 km/h (0 Bft)
16.07.2015 03:35 14,7 C 14,5 C 86 % 1013,9 hPa 0,0 mm 0,0 km/h (0 Bft) O 90 12,4 C 0,0 km/h (0 Bft)
16.07.2015 03:40 14,7 C 14,6 C 83 % 1013,9 hPa 0,0 mm 0,0 km/h (0 Bft) O-NO 67 11,8 C 0,0 km/h (0 Bft)
16.07.2015 03:45 14,7 C 14,5 C 86 % 1013,9 hPa 0,0 mm 0,0 km/h (0 Bft) O-NO 67 12,4 C 0,0 km/h (0 Bft)
16.07.2015 03:50 14,7 C 14,6 C 83 % 1013,9 hPa 0,0 mm 0,0 km/h (0 Bft) NO 45 11,8 C 0,0 km/h (0 Bft)
16.07.2015 03:55 14,6 C 14,5 C 86 % 1013,9 hPa 0,0 mm 0,0 km/h (0 Bft) O-NO 67 12,3 C 0,0 km/h (0 Bft)
16.07.2015 04:00 14,8 C 14,6 C 86 % 1013,9 hPa 0,0 mm 0,0 km/h (0 Bft) O-NO 67 12,5 C 0,0 km/h (0 Bft)
16.07.2015 04:05 14,8 C 14,6 C 86 % 1013,9 hPa 0,0 mm 0,0 km/h (0 Bft) O-NO 67 12,5 C 0,0 km/h (0 Bft)
16.07.2015 04:10 14,8 C 14,7 C 86 % 1013,9 hPa 0,0 mm 0,0 km/h (0 Bft) O-NO 67 12,5 C 0,0 km/h (0 Bft)
16.07.2015 04:15 14,7 C 14,6 C 86 % 1013,9 hPa 0,0 mm 0,0 km/h (0 Bft) O-NO 67 12,4 C 0,0 km/h (0 Bft)
16.07.2015 04:20 14,6 C 14,5 C 86 % 1013,9 hPa 0,0 mm 0,0 km/h (0 Bft) O-NO 67 12,3 C 0,0 km/h (0 Bft)
16.07.2015 04:25 14,8 C 14,6 C 86 % 1013,9 hPa 0,0 mm 0,0 km/h (0 Bft) O-NO 67 12,5 C 0,0 km/h (0 Bft)
16.07.2015 04:30 14,7 C 14,5 C 86 % 1013,7 hPa 0,0 mm 0,0 km/h (0 Bft) O-NO 67 12,4 C 0,0 km/h (0 Bft)
16.07.2015 04:35 14,8 C 14,6 C 86 % 1013,7 hPa 0,0 mm 0,0 km/h (0 Bft) O-SO 112 12,5 C 0,0 km/h (0 Bft)
16.07.2015 04:40 14,7 C 14,5 C 86 % 1013,7 hPa 0,0 mm 0,0 km/h (0 Bft) O-NO 67 12,4 C 0,0 km/h (0 Bft)
16.07.2015 04:45 14,8 C 14,6 C 86 % 1013,7 hPa 0,0 mm 0,0 km/h (0 Bft) O-NO 67 12,5 C 0,0 km/h (0 Bft)
16.07.2015 04:50 14,6 C 14,5 C 86 % 1013,7 hPa 0,0 mm 0,0 km/h (0 Bft) O-NO 67 12,3 C 0,0 km/h (0 Bft)
16.07.2015 04:55 14,5 C 14,4 C 86 % 1013,7 hPa 0,0 mm 0,0 km/h (0 Bft) O-NO 67 12,2 C 0,0 km/h (0 Bft)
16.07.2015 05:00 14,5 C 14,4 C 86 % 1013,7 hPa 0,0 mm 0,0 km/h (0 Bft) O-NO 67 12,2 C 0,0 km/h (0 Bft)
16.07.2015 05:05 14,6 C 14,4 C 86 % 1013,7 hPa 0,0 mm 0,0 km/h (0 Bft) O-SO 112 12,3 C 0,0 km/h (0 Bft)
16.07.2015 05:10 14,6 C 14,4 C 87 % 1013,6 hPa 0,0 mm 0,0 km/h (0 Bft) O-SO 112 12,5 C 0,0 km/h (0 Bft)
16.07.2015 05:15 14,6 C 14,4 C 87 % 1013,6 hPa 0,0 mm 0,0 km/h (0 Bft) O-SO 112 12,5 C 0,0 km/h (0 Bft)
16.07.2015 05:20 14,8 C 14,5 C 87 % 1013,6 hPa 0,0 mm 0,0 km/h (0 Bft) SO 135 12,7 C 0,0 km/h (0 Bft)
16.07.2015 05:25 14,8 C 14,5 C 87 % 1013,6 hPa 0,0 mm 0,0 km/h (0 Bft) O-NO 67 12,7 C 0,0 km/h (0 Bft)
16.07.2015 05:30 14,6 C 14,4 C 87 % 1013,7 hPa 0,0 mm 0,0 km/h (0 Bft) SO 135 12,5 C 0,0 km/h (0 Bft)
16.07.2015 05:35 14,6 C 14,4 C 87 % 1013,7 hPa 0,0 mm 0,0 km/h (0 Bft) O-NO 67 12,5 C 0,0 km/h (0 Bft)
16.07.2015 05:40 14,3 C 14,1 C 87 % 1013,7 hPa 0,0 mm 0,0 km/h (0 Bft) O-NO 67 12,2 C 0,0 km/h (0 Bft)
16.07.2015 05:45 14,1 C 14,0 C 86 % 1013,7 hPa 0,0 mm 0,0 km/h (0 Bft) O-NO 67 11,8 C 0,0 km/h (0 Bft)
16.07.2015 05:50 14,1 C 13,9 C 86 % 1013,6 hPa 0,0 mm 0,0 km/h (0 Bft) O-NO 67 11,8 C 0,0 km/h (0 Bft)
16.07.2015 05:55 14,1 C 13,9 C 86 % 1013,6 hPa 0,0 mm 0,0 km/h (0 Bft) O 90 11,8 C 0,0 km/h (0 Bft)
16.07.2015 06:00 14,1 C 14,0 C 86 % 1013,6 hPa 0,0 mm 0,0 km/h (0 Bft) O-NO 67 11,8 C 0,0 km/h (0 Bft)
16.07.2015 06:05 14,1 C 14,0 C 86 % 1013,6 hPa 0,0 mm 0,0 km/h (0 Bft) O-NO 67 11,8 C 0,0 km/h (0 Bft)
16.07.2015 06:10 14,2 C 14,3 C 86 % 1013,6 hPa 0,0 mm 0,0 km/h (0 Bft) O-NO 67 11,9 C 0,0 km/h (0 Bft)
16.07.2015 06:15 14,4 C 15,0 C 87 % 1013,6 hPa 0,0 mm 0,0 km/h (0 Bft) O-NO 67 12,3 C 0,0 km/h (0 Bft)
16.07.2015 06:20 14,6 C 16,0 C 85 % 1013,6 hPa 0,0 mm 0,0 km/h (0 Bft) O-NO 67 12,1 C 0,0 km/h (0 Bft)
16.07.2015 06:25 14,7 C 16,4 C 85 % 1013,6 hPa 0,0 mm 0,0 km/h (0 Bft) O-NO 67 12,2 C 0,0 km/h (0 Bft)
16.07.2015 06:30 14,9 C 16,9 C 84 % 1013,8 hPa 0,0 mm 0,0 km/h (0 Bft) O-NO 67 12,2 C 0,0 km/h (0 Bft)
16.07.2015 06:35 14,9 C 17,3 C 84 % 1013,8 hPa 0,0 mm 0,0 km/h (0 Bft) SO 135 12,2 C 0,0 km/h (0 Bft)
16.07.2015 06:40 15,3 C 18,0 C 84 % 1013,8 hPa 0,0 mm 0,0 km/h (0 Bft) S-SO 157 12,6 C 0,0 km/h (0 Bft)
16.07.2015 06:45 15,5 C 18,3 C 84 % 1013,8 hPa 0,0 mm 0,0 km/h (0 Bft) NW 315 12,8 C 0,0 km/h (0 Bft)
16.07.2015 06:50 16,0 C 19,3 C 83 % 1013,9 hPa 0,0 mm 0,0 km/h (0 Bft) NW 315 13,1 C 0,0 km/h (0 Bft)
16.07.2015 06:55 16,5 C 20,0 C 82 % 1013,9 hPa 0,0 mm 0,0 km/h (0 Bft) NW 315 13,4 C 0,0 km/h (0 Bft)
16.07.2015 07:00 16,5 C 21,1 C 84 % 1013,9 hPa 0,0 mm 0,0 km/h (0 Bft) NW 315 13,8 C 0,0 km/h (0 Bft)
16.07.2015 07:05 16,7 C 21,5 C 83 % 1013,9 hPa 0,0 mm 0,0 km/h (0 Bft) N-NO 22 13,8 C 0,0 km/h (0 Bft)
16.07.2015 07:10 17,3 C 22,2 C 83 % 1013,9 hPa 0,0 mm 0,0 km/h (0 Bft) N-NO 22 14,4 C 0,0 km/h (0 Bft)
16.07.2015 07:15 17,6 C 23,2 C 83 % 1013,9 hPa 0,0 mm 0,0 km/h (0 Bft) N-NO 22 14,7 C 0,0 km/h (0 Bft)
16.07.2015 07:20 17,8 C 24,2 C 82 % 1013,9 hPa 0,0 mm 0,0 km/h (0 Bft) N-NO 22 14,7 C 0,0 km/h (0 Bft)
16.07.2015 07:25 17,9 C 24,7 C 80 % 1013,9 hPa 0,0 mm 0,0 km/h (0 Bft) N-NO 22 14,4 C 0,0 km/h (0 Bft)
16.07.2015 07:30 18,8 C 25,2 C 79 % 1013,9 hPa 0,0 mm 0,0 km/h (0 Bft) N-NO 22 15,1 C 0,0 km/h (0 Bft)
16.07.2015 07:35 19,4 C 25,8 C 79 % 1013,9 hPa 0,0 mm 0,0 km/h (0 Bft) N-NO 22 15,7 C 0,0 km/h (0 Bft)
16.07.2015 07:40 19,9 C 26,9 C 78 % 1013,9 hPa 0,0 mm 0,0 km/h (0 Bft) N-NO 22 15,9 C 0,0 km/h (0 Bft)
16.07.2015 07:45 20,1 C 27,6 C 77 % 1013,9 hPa 0,0 mm 0,0 km/h (0 Bft) N-NO 22 15,9 C 0,0 km/h (0 Bft)
16.07.2015 07:50 20,2 C 28,4 C 75 % 1013,9 hPa 0,0 mm 0,0 km/h (0 Bft) N-NO 22 15,6 C 0,0 km/h (0 Bft)
16.07.2015 07:55 20,2 C 28,8 C 74 % 1013,9 hPa 0,0 mm 0,0 km/h (0 Bft) N-NO 22 15,4 C 0,0 km/h (0 Bft)
16.07.2015 08:00 20,6 C 29,9 C 73 % 1013,9 hPa 0,0 mm 0,0 km/h (0 Bft) N-NO 22 15,6 C 0,0 km/h (0 Bft)
16.07.2015 08:05 20,7 C 30,3 C 72 % 1013,9 hPa 0,0 mm 0,0 km/h (0 Bft) N-NO 22 15,5 C 0,0 km/h (0 Bft)
16.07.2015 08:10 21,3 C 30,7 C 72 % 1014,1 hPa 0,0 mm 0,0 km/h (0 Bft) N-NO 22 16,0 C 0,0 km/h (0 Bft)
16.07.2015 08:15 21,8 C 31,2 C 72 % 1014,1 hPa 0,0 mm 0,0 km/h (0 Bft) N-NO 22 16,5 C 0,0 km/h (0 Bft)
16.07.2015 08:20 22,4 C 31,5 C 71 % 1014,1 hPa 0,0 mm 0,0 km/h (0 Bft) N-NO 22 16,9 C 3,4 km/h (1 Bft)
16.07.2015 08:25 22,1 C 31,0 C 69 % 1014,1 hPa 0,0 mm 0,5 km/h (0 Bft) N-NO 22 16,1 C 2,8 km/h (1 Bft)
16.07.2015 08:30 22,6 C 30,3 C 69 % 1014,4 hPa 0,0 mm 0,8 km/h (0 Bft) N-NO 22 16,6 C 3,6 km/h (1 Bft)
16.07.2015 08:35 23,2 C 30,7 C 68 % 1014,4 hPa 0,0 mm 0,3 km/h (0 Bft) N-NO 22 17,0 C 0,0 km/h (0 Bft)
16.07.2015 08:40 23,4 C 31,4 C 68 % 1014,4 hPa 0,0 mm 0,0 km/h (0 Bft) N-NO 22 17,1 C 0,0 km/h (0 Bft)
16.07.2015 08:45 23,4 C 32,3 C 67 % 1014,4 hPa 0,0 mm 0,0 km/h (0 Bft) N-NO 22 16,9 C 0,0 km/h (0 Bft)
16.07.2015 08:50 23,6 C 32,7 C 67 % 1014,8 hPa 0,0 mm 0,0 km/h (0 Bft) N-NO 22 17,1 C 0,0 km/h (0 Bft)
16.07.2015 08:55 23,8 C 33,2 C 66 % 1014,8 hPa 0,0 mm 0,0 km/h (0 Bft) N-NO 22 17,1 C 0,0 km/h (0 Bft)
16.07.2015 09:00 23,6 C 33,4 C 65 % 1014,8 hPa 0,0 mm 0,0 km/h (0 Bft) N-NO 22 16,6 C 0,0 km/h (0 Bft)
16.07.2015 09:05 24,1 C 33,4 C 65 % 1014,8 hPa 0,0 mm 0,0 km/h (0 Bft) N-NO 22 17,1 C 0,0 km/h (0 Bft)
16.07.2015 09:10 24,3 C 34,2 C 64 % 1015,1 hPa 0,0 mm 0,0 km/h (0 Bft) N-NO 22 17,0 C 0,0 km/h (0 Bft)
16.07.2015 09:15 24,6 C 34,1 C 65 % 1015,1 hPa 0,0 mm 0,0 km/h (0 Bft) N-NO 22 17,6 C 0,0 km/h (0 Bft)
16.07.2015 09:20 24,6 C 33,1 C 62 % 1015,1 hPa 0,0 mm 1,6 km/h (1 Bft) N-NO 22 16,8 C 6,2 km/h (2 Bft)
16.07.2015 09:25 24,8 C 32,4 C 62 % 1015,1 hPa 0,0 mm 3,1 km/h (1 Bft) N-NO 22 17,0 C 3,9 km/h (1 Bft)
16.07.2015 09:30 24,8 C 32,2 C 61 % 1015,4 hPa 0,0 mm 3,4 km/h (1 Bft) NO 45 16,8 C 2,6 km/h (1 Bft)
16.07.2015 09:35 25,0 C 32,1 C 61 % 1015,4 hPa 0,0 mm 2,3 km/h (1 Bft) O-NO 67 16,9 C 0,0 km/h (0 Bft)
16.07.2015 09:40 25,5 C 32,6 C 62 % 1015,4 hPa 0,0 mm 1,0 km/h (0 Bft) O 90 17,7 C 0,0 km/h (0 Bft)
16.07.2015 09:45 25,9 C 32,8 C 61 % 1015,4 hPa 0,0 mm 0,3 km/h (0 Bft) O-SO 112 17,8 C 0,0 km/h (0 Bft)
16.07.2015 09:50 26,3 C 32,9 C 59 % 1015,8 hPa 0,0 mm 1,6 km/h (1 Bft) NO 45 17,6 C 2,8 km/h (1 Bft)
16.07.2015 09:55 26,3 C 33,1 C 59 % 1015,8 hPa 0,0 mm 1,8 km/h (1 Bft) W 270 17,6 C 0,0 km/h (0 Bft)
16.07.2015 10:00 26,4 C 33,4 C 58 % 1015,8 hPa 0,0 mm 1,8 km/h (1 Bft) O-NO 67 17,5 C 7,0 km/h (2 Bft)
16.07.2015 10:05 26,2 C 33,1 C 57 % 1015,8 hPa 0,0 mm 2,1 km/h (1 Bft) O-SO 112 17,0 C 0,0 km/h (0 Bft)
16.07.2015 10:10 26,2 C 32,9 C 57 % 1016,2 hPa 0,0 mm 2,6 km/h (1 Bft) W 270 17,0 C 9,1 km/h (2 Bft)
16.07.2015 10:15 26,4 C 33,0 C 58 % 1016,2 hPa 0,0 mm 2,6 km/h (1 Bft) N-NO 22 17,5 C 0,0 km/h (0 Bft)
16.07.2015 10:20 26,7 C 33,3 C 57 % 1016,2 hPa 0,0 mm 2,3 km/h (1 Bft) N-NO 22 17,5 C 3,9 km/h (1 Bft)
16.07.2015 10:25 26,5 C 33,2 C 56 % 1016,2 hPa 0,0 mm 2,6 km/h (1 Bft) NO 45 17,0 C 8,5 km/h (2 Bft)
16.07.2015 10:30 26,2 C 32,4 C 54 % 1016,3 hPa 0,0 mm 5,7 km/h (1 Bft) NO 45 16,1 C 17,3 km/h (3 Bft)
16.07.2015 10:35 26,2 C 31,9 C 54 % 1016,3 hPa 0,0 mm 6,2 km/h (2 Bft) SO 135 16,1 C 2,8 km/h (1 Bft)
16.07.2015 10:40 26,5 C 32,0 C 54 % 1016,3 hPa 0,0 mm 4,4 km/h (1 Bft) O-NO 67 16,4 C 4,4 km/h (1 Bft)
16.07.2015 10:45 26,4 C 32,3 C 54 % 1016,3 hPa 0,0 mm 3,9 km/h (1 Bft) O 90 16,3 C 9,8 km/h (2 Bft)
16.07.2015 10:50 26,5 C 32,1 C 54 % 1016,6 hPa 0,0 mm 4,4 km/h (1 Bft) NO 45 16,4 C 2,8 km/h (1 Bft)
16.07.2015 10:55 26,5 C 32,4 C 54 % 1016,6 hPa 0,0 mm 4,4 km/h (1 Bft) O-SO 112 16,4 C 3,1 km/h (1 Bft)
16.07.2015 11:00 26,7 C 32,4 C 54 % 1016,6 hPa 0,0 mm 3,9 km/h (1 Bft) O 90 16,6 C 3,4 km/h (1 Bft)
16.07.2015 11:05 26,9 C 32,5 C 53 % 1016,6 hPa 0,0 mm 4,1 km/h (1 Bft) O-NO 67 16,5 C 6,2 km/h (2 Bft)
16.07.2015 11:10 26,8 C 32,3 C 51 % 1016,9 hPa 0,0 mm 4,7 km/h (1 Bft) O-NO 67 15,8 C 9,1 km/h (2 Bft)
16.07.2015 11:15 26,6 C 31,9 C 50 % 1016,9 hPa 0,0 mm 5,7 km/h (1 Bft) N-NO 22 15,3 C 6,7 km/h (2 Bft)
16.07.2015 11:20 27,1 C 32,3 C 51 % 1016,9 hPa 0,0 mm 5,7 km/h (1 Bft) N-NO 22 16,1 C 11,7 km/h (2 Bft)
16.07.2015 11:25 27,0 C 32,0 C 50 % 1016,9 hPa 0,0 mm 7,0 km/h (2 Bft) N-NO 22 15,7 C 12,4 km/h (3 Bft)
16.07.2015 11:30 27,0 C 32,0 C 50 % 1016,8 hPa 0,0 mm 7,0 km/h (2 Bft) N-NW 337 15,7 C 10,4 km/h (2 Bft)
16.07.2015 11:35 27,0 C 32,0 C 50 % 1016,8 hPa 0,0 mm 6,2 km/h (2 Bft) O 90 15,7 C 5,4 km/h (1 Bft)
16.07.2015 11:40 27,1 C 32,6 C 50 % 1016,8 hPa 0,0 mm 4,7 km/h (1 Bft) SO 135 15,8 C 8,3 km/h (2 Bft)
16.07.2015 11:45 26,9 C 32,4 C 50 % 1016,8 hPa 0,0 mm 3,9 km/h (1 Bft) O-NO 67 15,6 C 7,0 km/h (2 Bft)
16.07.2015 11:50 27,0 C 32,1 C 50 % 1016,8 hPa 0,0 mm 6,5 km/h (2 Bft) N-NW 337 15,7 C 11,9 km/h (2 Bft)
16.07.2015 11:55 27,3 C 32,1 C 49 % 1016,8 hPa 0,0 mm 7,3 km/h (2 Bft) N-NO 22 15,6 C 10,1 km/h (2 Bft)
16.07.2015 12:00 27,4 C 32,4 C 49 % 1016,8 hPa 0,0 mm 4,9 km/h (1 Bft) N-NO 22 15,7 C 0,0 km/h (0 Bft)
16.07.2015 12:05 27,6 C 32,8 C 49 % 1016,8 hPa 0,0 mm 4,1 km/h (1 Bft) O-NO 67 15,9 C 6,7 km/h (2 Bft)
16.07.2015 12:10 27,8 C 32,6 C 49 % 1016,9 hPa 0,0 mm 4,7 km/h (1 Bft) O 90 16,1 C 6,7 km/h (2 Bft)
16.07.2015 12:15 27,5 C 32,8 C 49 % 1016,9 hPa 0,0 mm 5,4 km/h (1 Bft) O 90 15,8 C 5,4 km/h (1 Bft)
16.07.2015 12:20 27,7 C 33,2 C 49 % 1016,9 hPa 0,0 mm 3,9 km/h (1 Bft) SO 135 16,0 C 0,0 km/h (0 Bft)
16.07.2015 12:25 27,8 C 33,2 C 49 % 1016,9 hPa 0,0 mm 2,8 km/h (1 Bft) O-NO 67 16,1 C 6,5 km/h (2 Bft)
16.07.2015 12:30 28,0 C 33,0 C 48 % 1016,5 hPa 0,0 mm 3,6 km/h (1 Bft) O-NO 67 15,9 C 3,6 km/h (1 Bft)
16.07.2015 12:35 28,1 C 33,3 C 47 % 1016,5 hPa 0,0 mm 2,8 km/h (1 Bft) O-SO 112 15,7 C 2,8 km/h (1 Bft)
16.07.2015 12:40 28,2 C 33,3 C 48 % 1016,5 hPa 0,0 mm 3,6 km/h (1 Bft) N-NO 22 16,1 C 11,9 km/h (2 Bft)
16.07.2015 12:45 28,3 C 33,2 C 48 % 1016,5 hPa 0,0 mm 4,9 km/h (1 Bft) O-NO 67 16,2 C 8,5 km/h (2 Bft)
16.07.2015 12:50 28,3 C 33,1 C 49 % 1016,1 hPa 0,0 mm 5,2 km/h (1 Bft) O-NO 67 16,5 C 3,9 km/h (1 Bft)
16.07.2015 12:55 28,2 C 32,9 C 46 % 1016,1 hPa 0,0 mm 6,7 km/h (2 Bft) O-NO 67 15,5 C 7,3 km/h (2 Bft)
16.07.2015 13:00 28,1 C 32,4 C 46 % 1016,1 hPa 0,0 mm 7,8 km/h (2 Bft) NO 45 15,4 C 4,4 km/h (1 Bft)
16.07.2015 13:05 28,1 C 32,7 C 45 % 1016,1 hPa 0,0 mm 5,7 km/h (1 Bft) O-SO 112 15,0 C 0,0 km/h (0 Bft)
16.07.2015 13:10 28,4 C 33,4 C 46 % 1015,8 hPa 0,0 mm 2,1 km/h (1 Bft) O-SO 112 15,6 C 4,1 km/h (1 Bft)
16.07.2015 13:15 28,4 C 33,6 C 46 % 1015,8 hPa 0,0 mm 2,8 km/h (1 Bft) NO 45 15,6 C 7,3 km/h (2 Bft)
16.07.2015 13:20 28,2 C 32,9 C 46 % 1015,8 hPa 0,0 mm 6,5 km/h (2 Bft) O-NO 67 15,5 C 4,4 km/h (1 Bft)
16.07.2015 13:25 28,5 C 32,7 C 46 % 1015,8 hPa 0,0 mm 6,2 km/h (2 Bft) N-NO 22 15,7 C 5,4 km/h (1 Bft)
16.07.2015 13:30 28,9 C 32,0 C 45 % 1015,4 hPa 0,0 mm 3,9 km/h (1 Bft) NO 45 15,8 C 4,1 km/h (1 Bft)
16.07.2015 13:35 29,1 C 31,8 C 43 % 1015,4 hPa 0,0 mm 3,9 km/h (1 Bft) O-NO 67 15,2 C 5,4 km/h (1 Bft)
16.07.2015 13:40 28,8 C 31,4 C 43 % 1015,4 hPa 0,0 mm 5,4 km/h (1 Bft) N-NO 22 15,0 C 10,4 km/h (2 Bft)
16.07.2015 13:45 28,9 C 31,6 C 43 % 1015,4 hPa 0,0 mm 6,0 km/h (2 Bft) N-NO 22 15,0 C 3,9 km/h (1 Bft)
16.07.2015 13:50 29,0 C 32,5 C 42 % 1015,1 hPa 0,0 mm 6,2 km/h (2 Bft) N-NW 337 14,8 C 10,1 km/h (2 Bft)
16.07.2015 13:55 29,2 C 32,9 C 43 % 1015,1 hPa 0,0 mm 6,0 km/h (2 Bft) W 270 15,3 C 14,2 km/h (3 Bft)
16.07.2015 14:00 29,4 C 33,1 C 40 % 1015,1 hPa 0,0 mm 7,0 km/h (2 Bft) O-NO 67 14,4 C 17,6 km/h (3 Bft)
16.07.2015 14:05 29,3 C 33,2 C 41 % 1015,1 hPa 0,0 mm 8,0 km/h (2 Bft) N-NW 337 14,7 C 8,0 km/h (2 Bft)
16.07.2015 14:10 29,0 C 32,8 C 40 % 1015,0 hPa 0,0 mm 9,8 km/h (2 Bft) NO 45 14,0 C 13,5 km/h (3 Bft)
16.07.2015 14:11 29,0 C 32,8 C 40 % 1015,0 hPa 0,0 mm 9,8 km/h (2 Bft) NO 45 14,0 C 13,5 km/h (3 Bft)
16.07.2015 14:15 29,0 C 32,8 C 40 % 1015,0 hPa 0,0 mm 9,8 km/h (2 Bft) NO 45 14,0 C 13,5 km/h (3 Bft)
16.07.2015 14:20 29,1 C 32,8 C 41 % 1015,0 hPa 0,0 mm 9,1 km/h (2 Bft) W-NW 292 14,5 C 8,3 km/h (2 Bft)
16.07.2015 14:25 29,4 C 33,1 C 42 % 1015,0 hPa 0,0 mm 8,8 km/h (2 Bft) NW 315 15,1 C 10,6 km/h (2 Bft)
16.07.2015 14:30 29,7 C 33,4 C 42 % 1014,6 hPa 0,0 mm 6,7 km/h (2 Bft) NW 315 15,4 C 5,7 km/h (1 Bft)
16.07.2015 14:35 29,9 C 33,7 C 41 % 1014,6 hPa 0,0 mm 6,2 km/h (2 Bft) W-NW 292 15,2 C 4,1 km/h (1 Bft)
16.07.2015 14:40 30,1 C 33,7 C 40 % 1014,6 hPa 0,0 mm 7,0 km/h (2 Bft) O-SO 112 15,0 C 3,4 km/h (1 Bft)
16.07.2015 14:45 30,0 C 33,7 C 41 % 1014,6 hPa 0,0 mm 7,0 km/h (2 Bft) NW 315 15,3 C 5,7 km/h (1 Bft)
16.07.2015 14:50 30,1 C 33,6 C 40 % 1014,7 hPa 0,0 mm 7,0 km/h (2 Bft) W-NW 292 15,0 C 4,7 km/h (1 Bft)
16.07.2015 14:55 30,1 C 33,8 C 40 % 1014,7 hPa 0,0 mm 6,2 km/h (2 Bft) N-NO 22 15,0 C 2,8 km/h (1 Bft)
16.07.2015 15:00 30,1 C 34,2 C 41 % 1014,7 hPa 0,0 mm 4,7 km/h (1 Bft) W 270 15,4 C 10,1 km/h (2 Bft)
16.07.2015 15:05 30,0 C 34,0 C 41 % 1014,7 hPa 0,0 mm 5,4 km/h (1 Bft) N-NO 22 15,3 C 6,0 km/h (2 Bft)
16.07.2015 15:10 30,1 C 34,0 C 40 % 1014,4 hPa 0,0 mm 7,3 km/h (2 Bft) NW 315 15,0 C 10,4 km/h (2 Bft)
16.07.2015 15:15 30,0 C 33,8 C 40 % 1014,4 hPa 0,0 mm 7,0 km/h (2 Bft) W-NW 292 14,9 C 14,2 km/h (3 Bft)
16.07.2015 15:20 30,0 C 33,3 C 40 % 1014,4 hPa 0,0 mm 8,0 km/h (2 Bft) N-NO 22 14,9 C 12,4 km/h (3 Bft)
16.07.2015 15:25 29,9 C 33,4 C 41 % 1014,4 hPa 0,0 mm 7,8 km/h (2 Bft) N-NO 22 15,2 C 10,9 km/h (2 Bft)
16.07.2015 15:30 29,6 C 33,3 C 41 % 1014,2 hPa 0,0 mm 7,0 km/h (2 Bft) NO 45 14,9 C 6,2 km/h (2 Bft)
16.07.2015 15:35 29,5 C 33,3 C 41 % 1014,2 hPa 0,0 mm 6,2 km/h (2 Bft) S 180 14,8 C 2,8 km/h (1 Bft)
16.07.2015 15:40 29,5 C 33,5 C 41 % 1014,2 hPa 0,0 mm 6,2 km/h (2 Bft) W-NW 292 14,8 C 10,6 km/h (2 Bft)
16.07.2015 15:45 29,6 C 33,5 C 40 % 1014,2 hPa 0,0 mm 6,2 km/h (2 Bft) W 270 14,5 C 7,8 km/h (2 Bft)
16.07.2015 15:50 29,7 C 33,8 C 41 % 1014,1 hPa 0,0 mm 6,7 km/h (2 Bft) W 270 15,0 C 8,0 km/h (2 Bft)
16.07.2015 15:55 29,8 C 33,8 C 42 % 1014,1 hPa 0,0 mm 6,7 km/h (2 Bft) NW 315 15,5 C 8,5 km/h (2 Bft)
16.07.2015 16:00 29,8 C 33,9 C 41 % 1014,1 hPa 0,0 mm 7,0 km/h (2 Bft) W 270 15,1 C 7,0 km/h (2 Bft)
16.07.2015 16:05 29,6 C 33,8 C 41 % 1014,1 hPa 0,0 mm 7,3 km/h (2 Bft) NW 315 14,9 C 4,1 km/h (1 Bft)
16.07.2015 16:10 29,5 C 34,2 C 40 % 1014,1 hPa 0,0 mm 6,2 km/h (2 Bft) O-NO 67 14,5 C 8,5 km/h (2 Bft)
16.07.2015 16:15 29,2 C 34,1 C 40 % 1014,1 hPa 0,0 mm 5,4 km/h (1 Bft) NW 315 14,2 C 12,9 km/h (3 Bft)
16.07.2015 16:20 28,7 C 33,8 C 41 % 1014,1 hPa 0,0 mm 6,5 km/h (2 Bft) NW 315 14,1 C 5,2 km/h (1 Bft)
16.07.2015 16:25 28,6 C 34,0 C 42 % 1014,1 hPa 0,0 mm 7,0 km/h (2 Bft) N-NW 337 14,4 C 8,5 km/h (2 Bft)
16.07.2015 16:30 28,7 C 33,9 C 42 % 1013,8 hPa 0,0 mm 6,5 km/h (2 Bft) NW 315 14,5 C 3,9 km/h (1 Bft)
16.07.2015 16:35 28,6 C 33,9 C 43 % 1013,8 hPa 0,0 mm 7,0 km/h (2 Bft) NW 315 14,8 C 7,0 km/h (2 Bft)
16.07.2015 16:40 28,5 C 34,0 C 42 % 1013,8 hPa 0,0 mm 4,9 km/h (1 Bft) NW 315 14,3 C 2,6 km/h (1 Bft)
16.07.2015 16:45 28,4 C 34,3 C 43 % 1013,8 hPa 0,0 mm 4,4 km/h (1 Bft) O-NO 67 14,6 C 11,1 km/h (2 Bft)
16.07.2015 16:50 28,3 C 34,0 C 42 % 1013,9 hPa 0,0 mm 6,0 km/h (2 Bft) W 270 14,1 C 10,6 km/h (2 Bft)
16.07.2015 16:55 28,3 C 33,6 C 43 % 1013,9 hPa 0,0 mm 8,5 km/h (2 Bft) W-NW 292 14,5 C 12,4 km/h (3 Bft)
16.07.2015 17:00 28,3 C 33,2 C 43 % 1013,9 hPa 0,0 mm 9,3 km/h (2 Bft) W 270 14,5 C 10,9 km/h (2 Bft)
16.07.2015 17:05 28,2 C 32,9 C 43 % 1013,9 hPa 0,0 mm 7,8 km/h (2 Bft) N-NO 22 14,4 C 9,1 km/h (2 Bft)
16.07.2015 17:10 28,3 C 31,7 C 43 % 1013,8 hPa 0,0 mm 6,7 km/h (2 Bft) N-NW 337 14,5 C 4,7 km/h (1 Bft)
16.07.2015 17:15 28,3 C 31,0 C 43 % 1013,8 hPa 0,0 mm 6,7 km/h (2 Bft) N-NW 337 14,5 C 11,1 km/h (2 Bft)
16.07.2015 17:20 28,3 C 30,2 C 43 % 1013,8 hPa 0,0 mm 7,3 km/h (2 Bft) N-NW 337 14,5 C 9,3 km/h (2 Bft)
16.07.2015 17:25 28,2 C 30,2 C 43 % 1013,8 hPa 0,0 mm 6,5 km/h (2 Bft) NO 45 14,4 C 6,5 km/h (2 Bft)
16.07.2015 17:30 28,2 C 30,2 C 42 % 1013,7 hPa 0,0 mm 2,8 km/h (1 Bft) O-SO 112 14,0 C 3,9 km/h (1 Bft)
16.07.2015 17:35 28,2 C 30,0 C 43 % 1013,7 hPa 0,0 mm 3,9 km/h (1 Bft) N-NO 22 14,4 C 11,9 km/h (2 Bft)
16.07.2015 17:40 28,2 C 29,8 C 43 % 1013,7 hPa 0,0 mm 5,2 km/h (1 Bft) N-NO 22 14,4 C 6,7 km/h (2 Bft)
16.07.2015 17:45 28,2 C 29,8 C 43 % 1013,7 hPa 0,0 mm 5,7 km/h (1 Bft) N-NW 337 14,4 C 7,8 km/h (2 Bft)
16.07.2015 17:50 28,3 C 29,9 C 42 % 1013,6 hPa 0,0 mm 3,9 km/h (1 Bft) W-NW 292 14,1 C 4,4 km/h (1 Bft)
16.07.2015 17:55 28,3 C 30,0 C 42 % 1013,6 hPa 0,0 mm 3,9 km/h (1 Bft) N-NO 22 14,1 C 10,4 km/h (2 Bft)
16.07.2015 18:00 28,3 C 29,8 C 42 % 1013,6 hPa 0,0 mm 6,2 km/h (2 Bft) N-NW 337 14,1 C 8,5 km/h (2 Bft)
16.07.2015 18:05 28,2 C 29,8 C 42 % 1013,6 hPa 0,0 mm 6,2 km/h (2 Bft) W 270 14,0 C 6,0 km/h (2 Bft)
16.07.2015 18:10 28,2 C 29,9 C 42 % 1013,6 hPa 0,0 mm 4,9 km/h (1 Bft) NW 315 14,0 C 3,4 km/h (1 Bft)
16.07.2015 18:15 28,2 C 29,8 C 42 % 1013,6 hPa 0,0 mm 5,7 km/h (1 Bft) NW 315 14,0 C 6,7 km/h (2 Bft)
16.07.2015 18:20 28,2 C 29,7 C 43 % 1013,6 hPa 0,0 mm 4,1 km/h (1 Bft) W-SW 247 14,4 C 0,0 km/h (0 Bft)
16.07.2015 18:25 28,0 C 29,8 C 43 % 1013,6 hPa 0,0 mm 2,1 km/h (1 Bft) S-SW 202 14,2 C 0,0 km/h (0 Bft)
16.07.2015 18:30 28,1 C 29,8 C 43 % 1013,2 hPa 0,0 mm 1,8 km/h (1 Bft) N-NW 337 14,3 C 11,4 km/h (2 Bft)
16.07.2015 18:35 28,1 C 29,6 C 43 % 1013,2 hPa 0,0 mm 3,6 km/h (1 Bft) NW 315 14,3 C 9,8 km/h (2 Bft)
16.07.2015 18:40 28,0 C 29,3 C 43 % 1013,2 hPa 0,0 mm 6,5 km/h (2 Bft) N-NW 337 14,2 C 8,0 km/h (2 Bft)
16.07.2015 18:45 28,1 C 29,3 C 43 % 1013,2 hPa 0,0 mm 6,5 km/h (2 Bft) NW 315 14,3 C 7,3 km/h (2 Bft)
16.07.2015 18:50 28,0 C 29,6 C 43 % 1013,4 hPa 0,0 mm 4,4 km/h (1 Bft) N-NW 337 14,2 C 3,6 km/h (1 Bft)
16.07.2015 18:55 27,9 C 30,4 C 43 % 1013,4 hPa 0,0 mm 3,6 km/h (1 Bft) N 360 14,1 C 4,7 km/h (1 Bft)
16.07.2015 19:00 27,8 C 31,2 C 43 % 1013,4 hPa 0,0 mm 4,7 km/h (1 Bft) NW 315 14,1 C 4,9 km/h (1 Bft)
16.07.2015 19:05 27,8 C 31,4 C 43 % 1013,4 hPa 0,0 mm 5,4 km/h (1 Bft) N-NW 337 14,1 C 4,4 km/h (1 Bft)
16.07.2015 19:10 27,6 C 31,8 C 45 % 1013,4 hPa 0,0 mm 2,8 km/h (1 Bft) N-NW 337 14,6 C 0,0 km/h (0 Bft)
16.07.2015 19:15 27,7 C 32,3 C 45 % 1013,4 hPa 0,0 mm 1,3 km/h (1 Bft) W 270 14,7 C 3,4 km/h (1 Bft)
16.07.2015 19:20 27,4 C 32,5 C 47 % 1013,4 hPa 0,0 mm 0,5 km/h (0 Bft) O-NO 67 15,1 C 0,0 km/h (0 Bft)
16.07.2015 19:25 27,1 C 32,3 C 47 % 1013,4 hPa 0,0 mm 0,8 km/h (0 Bft) O-NO 67 14,8 C 3,1 km/h (1 Bft)
16.07.2015 19:30 26,9 C 31,8 C 48 % 1013,4 hPa 0,0 mm 0,5 km/h (0 Bft) O 90 14,9 C 0,0 km/h (0 Bft)
16.07.2015 19:35 26,8 C 31,9 C 49 % 1013,4 hPa 0,0 mm 0,3 km/h (0 Bft) O-NO 67 15,2 C 0,0 km/h (0 Bft)
16.07.2015 19:40 26,8 C 31,6 C 49 % 1013,4 hPa 0,0 mm 0,8 km/h (0 Bft) O-NO 67 15,2 C 3,9 km/h (1 Bft)
16.07.2015 19:45 26,7 C 31,2 C 49 % 1013,4 hPa 0,0 mm 1,8 km/h (1 Bft) O-SO 112 15,1 C 0,0 km/h (0 Bft)
16.07.2015 19:50 26,7 C 31,1 C 50 % 1013,3 hPa 0,0 mm 1,0 km/h (0 Bft) O-SO 112 15,4 C 0,0 km/h (0 Bft)
16.07.2015 19:55 26,7 C 31,0 C 50 % 1013,3 hPa 0,0 mm 0,5 km/h (0 Bft) SO 135 15,4 C 0,0 km/h (0 Bft)
16.07.2015 20:00 26,9 C 31,0 C 49 % 1013,3 hPa 0,0 mm 0,8 km/h (0 Bft) O-NO 67 15,3 C 0,0 km/h (0 Bft)
16.07.2015 20:05 26,9 C 30,9 C 49 % 1013,3 hPa 0,0 mm 0,3 km/h (0 Bft) O-NO 67 15,3 C 0,0 km/h (0 Bft)
16.07.2015 20:10 26,7 C 30,6 C 49 % 1013,4 hPa 0,0 mm 0,0 km/h (0 Bft) SO 135 15,1 C 0,0 km/h (0 Bft)
16.07.2015 20:12 26,6 C 30,5 C 49 % 1013,4 hPa 0,0 mm 0,0 km/h (0 Bft) O-SO 112 15,0 C 0,0 km/h (0 Bft)
16.07.2015 20:15 26,6 C 30,5 C 49 % 1013,4 hPa 0,0 mm 0,0 km/h (0 Bft) O-SO 112 15,0 C 0,0 km/h (0 Bft)
16.07.2015 20:20 26,6 C 30,2 C 50 % 1013,4 hPa 0,0 mm 0,0 km/h (0 Bft) O-SO 112 15,3 C 0,0 km/h (0 Bft)
16.07.2015 20:25 26,5 C 29,9 C 50 % 1013,4 hPa 0,0 mm 0,0 km/h (0 Bft) O-SO 112 15,2 C 0,0 km/h (0 Bft)
16.07.2015 20:30 26,3 C 29,5 C 50 % 1013,2 hPa 0,0 mm 0,0 km/h (0 Bft) O 90 15,0 C 0,0 km/h (0 Bft)
16.07.2015 20:35 26,2 C 29,0 C 50 % 1013,2 hPa 0,0 mm 0,3 km/h (0 Bft) SO 135 14,9 C 0,0 km/h (0 Bft)
16.07.2015 20:40 25,6 C 28,1 C 53 % 1013,2 hPa 0,0 mm 0,3 km/h (0 Bft) O-SO 112 15,3 C 0,0 km/h (0 Bft)
16.07.2015 20:45 25,4 C 27,5 C 53 % 1013,2 hPa 0,0 mm 0,5 km/h (0 Bft) SO 135 15,1 C 0,0 km/h (0 Bft)
16.07.2015 20:50 25,2 C 26,7 C 53 % 1013,4 hPa 0,0 mm 0,8 km/h (0 Bft) S-SO 157 14,9 C 2,6 km/h (1 Bft)
16.07.2015 20:55 24,9 C 26,2 C 55 % 1013,4 hPa 0,0 mm 0,5 km/h (0 Bft) SO 135 15,2 C 0,0 km/h (0 Bft)
16.07.2015 21:00 24,6 C 25,6 C 56 % 1013,4 hPa 0,0 mm 0,3 km/h (0 Bft) S-SO 157 15,2 C 0,0 km/h (0 Bft)
16.07.2015 21:05 24,4 C 25,3 C 57 % 1013,4 hPa 0,0 mm 0,3 km/h (0 Bft) SO 135 15,3 C 3,6 km/h (1 Bft)
16.07.2015 21:10 24,2 C 24,8 C 58 % 1013,2 hPa 0,0 mm 2,6 km/h (1 Bft) S-SO 157 15,4 C 3,6 km/h (1 Bft)
16.07.2015 21:15 23,8 C 24,5 C 60 % 1013,2 hPa 0,0 mm 2,8 km/h (1 Bft) SO 135 15,6 C 2,6 km/h (1 Bft)
16.07.2015 21:20 22,9 C 23,9 C 63 % 1013,2 hPa 0,0 mm 0,8 km/h (0 Bft) O-SO 112 15,5 C 0,0 km/h (0 Bft)
16.07.2015 21:25 22,6 C 23,5 C 64 % 1013,2 hPa 0,0 mm 0,8 km/h (0 Bft) S-SO 157 15,4 C 2,8 km/h (1 Bft)
16.07.2015 21:30 22,7 C 23,4 C 64 % 1013,3 hPa 0,0 mm 1,6 km/h (1 Bft) SO 135 15,5 C 2,6 km/h (1 Bft)
16.07.2015 21:35 22,7 C 23,2 C 63 % 1013,3 hPa 0,0 mm 1,6 km/h (1 Bft) SO 135 15,3 C 3,4 km/h (1 Bft)
16.07.2015 21:40 22,5 C 22,9 C 64 % 1013,3 hPa 0,0 mm 1,0 km/h (0 Bft) SO 135 15,3 C 0,0 km/h (0 Bft)
16.07.2015 21:45 22,1 C 22,7 C 65 % 1013,3 hPa 0,0 mm 0,5 km/h (0 Bft) SO 135 15,2 C 0,0 km/h (0 Bft)
16.07.2015 21:50 22,0 C 22,4 C 66 % 1013,4 hPa 0,0 mm 0,0 km/h (0 Bft) S-SO 157 15,3 C 0,0 km/h (0 Bft)
16.07.2015 21:55 21,8 C 22,2 C 66 % 1013,4 hPa 0,0 mm 0,0 km/h (0 Bft) S-SO 157 15,2 C 2,6 km/h (1 Bft)
16.07.2015 22:00 21,6 C 22,0 C 66 % 1013,4 hPa 0,0 mm 0,3 km/h (0 Bft) SO 135 15,0 C 0,0 km/h (0 Bft)
16.07.2015 22:05 21,4 C 21,8 C 67 % 1013,4 hPa 0,0 mm 0,3 km/h (0 Bft) S-SO 157 15,0 C 0,0 km/h (0 Bft)
16.07.2015 22:10 21,1 C 21,5 C 67 % 1013,3 hPa 0,0 mm 0,0 km/h (0 Bft) SO 135 14,7 C 0,0 km/h (0 Bft)
16.07.2015 22:15 21,0 C 21,4 C 67 % 1013,3 hPa 0,0 mm 0,0 km/h (0 Bft) S-SO 157 14,6 C 0,0 km/h (0 Bft)
16.07.2015 22:20 20,8 C 21,2 C 67 % 1013,3 hPa 0,0 mm 0,0 km/h (0 Bft) O-SO 112 14,4 C 0,0 km/h (0 Bft)
16.07.2015 22:25 20,7 C 20,9 C 67 % 1013,3 hPa 0,0 mm 0,0 km/h (0 Bft) O 90 14,3 C 0,0 km/h (0 Bft)
16.07.2015 22:30 20,5 C 20,5 C 66 % 1013,4 hPa 0,0 mm 0,0 km/h (0 Bft) O-NO 67 13,9 C 0,0 km/h (0 Bft)
16.07.2015 22:35 20,4 C 20,4 C 66 % 1013,4 hPa 0,0 mm 0,0 km/h (0 Bft) O-NO 67 13,8 C 0,0 km/h (0 Bft)
16.07.2015 22:40 20,1 C 20,1 C 66 % 1013,4 hPa 0,0 mm 0,0 km/h (0 Bft) N-NO 22 13,5 C 0,0 km/h (0 Bft)
16.07.2015 22:45 20,0 C 19,9 C 66 % 1013,4 hPa 0,0 mm 0,0 km/h (0 Bft) N-NO 22 13,4 C 0,0 km/h (0 Bft)
16.07.2015 22:50 19,8 C 19,7 C 66 % 1013,2 hPa 0,0 mm 0,0 km/h (0 Bft) N-NO 22 13,3 C 0,0 km/h (0 Bft)
16.07.2015 22:55 19,7 C 19,6 C 66 % 1013,2 hPa 0,0 mm 0,0 km/h (0 Bft) NO 45 13,2 C 0,0 km/h (0 Bft)
16.07.2015 23:00 19,7 C 19,5 C 66 % 1013,2 hPa 0,0 mm 0,0 km/h (0 Bft) NO 45 13,2 C 0,0 km/h (0 Bft)
16.07.2015 23:05 19,7 C 19,5 C 66 % 1013,2 hPa 0,0 mm 0,0 km/h (0 Bft) NO 45 13,2 C 0,0 km/h (0 Bft)
16.07.2015 23:10 19,9 C 19,6 C 66 % 1013,2 hPa 0,0 mm 0,0 km/h (0 Bft) O-NO 67 13,4 C 0,0 km/h (0 Bft)
16.07.2015 23:15 19,7 C 19,5 C 66 % 1013,2 hPa 0,0 mm 0,0 km/h (0 Bft) O-NO 67 13,2 C 0,0 km/h (0 Bft)
16.07.2015 23:20 19,5 C 19,4 C 66 % 1013,2 hPa 0,0 mm 0,0 km/h (0 Bft) NO 45 13,0 C 0,0 km/h (0 Bft)
16.07.2015 23:25 19,3 C 19,2 C 66 % 1013,2 hPa 0,0 mm 0,0 km/h (0 Bft) NO 45 12,8 C 0,0 km/h (0 Bft)
16.07.2015 23:30 19,2 C 19,1 C 66 % 1013,1 hPa 0,0 mm 0,0 km/h (0 Bft) NO 45 12,7 C 0,0 km/h (0 Bft)
16.07.2015 23:35 19,0 C 18,9 C 67 % 1013,1 hPa 0,0 mm 0,0 km/h (0 Bft) NO 45 12,7 C 0,0 km/h (0 Bft)
16.07.2015 23:40 18,9 C 18,8 C 67 % 1013,1 hPa 0,0 mm 0,0 km/h (0 Bft) NO 45 12,6 C 0,0 km/h (0 Bft)
16.07.2015 23:45 18,9 C 18,8 C 67 % 1013,1 hPa 0,0 mm 0,0 km/h (0 Bft) NW 315 12,6 C 0,0 km/h (0 Bft)
16.07.2015 23:50 18,8 C 18,7 C 68 % 1013,4 hPa 0,0 mm 0,0 km/h (0 Bft) O-NO 67 12,8 C 0,0 km/h (0 Bft)
16.07.2015 23:55 19,3 C 19,0 C 68 % 1013,4 hPa 0,0 mm 0,0 km/h (0 Bft) O-NO 67 13,2 C 0,0 km/h (0 Bft)
_ Min-Zeit 06:05 05:55 16:15 23:45 - 23:55 - - 01:30 23:55
Minimum _ 14,1 C 13,9 C 40 % 1013,1 hPa - 0,0 km/h (0 Bft) - - 11,5 C 0,0 km/h (0 Bft)
_ Max-Zeit 15:10 16:45 06:15 12:25 23:55 14:15 - - 09:45 14:00
Maximum _ 30,1 C 34,3 C 87 % 1016,9 hPa 0,0 mm 9,8 km/h
NO (2 Bft)
- - 17,8 C 17,6 km/h
O-NO (3 Bft)
Durchschnitt _ 22,5 C 25,4 C 63 % 1014,3 hPa #0,0 mm 2,3 km/h (1 Bft) N-NO - 14,3 C 2,9 km/h (1 Bft)